This is the latest recevied weather packets stored in our database for station/object W5ADC. If no packets are shown the sender has not sent any weather packets the latest 10 day(s).
| Time | Temp. | Humidity | Pressure | Rain* | Wind** | Luminosity | Snow |
|---|---|---|---|---|---|---|---|
| 1777929763 | 27.22° C | 58% | 1003.6 hPa | 0 mm | - | 513 W/m² | - |
| 1777929461 | 26.11° C | 58% | 1004 hPa | 0 mm | - | 547 W/m² | - |
| 1777929156 | 26.67° C | 58% | 1004 hPa | 0 mm | - | 576 W/m² | - |
| 1777928854 | 26.11° C | 59% | 1004.1 hPa | 0 mm | - | 546 W/m² | - |
| 1777928551 | 26.67° C | 59% | 1004.3 hPa | 0 mm | - | 568 W/m² | - |
| 1777928248 | 26.67° C | 58% | 1004.2 hPa | 0 mm | - | 552 W/m² | - |
| 1777927946 | 26.67° C | 58% | 1004.5 hPa | 0 mm | - | 615 W/m² | - |
| 1777927644 | 26.11° C | 58% | 1004.5 hPa | 0 mm | - | 525 W/m² | - |
| 1777927342 | 26.67° C | 58% | 1005 hPa | 0 mm | - | 519 W/m² | - |
| 1777927041 | 26.67° C | 56% | 1004.8 hPa | 0 mm | - | 537 W/m² | - |
| 1777926738 | 26.67° C | 58% | 1004.7 hPa | 0 mm | - | 256 W/m² | - |
| 1777926438 | 26.67° C | 56% | 1004.9 hPa | 0 mm | - | 658 W/m² | - |
| 1777926135 | 26.67° C | 56% | 1005 hPa | 0 mm | - | 642 W/m² | - |
| 1777925832 | 26.67° C | 56% | 1005.1 hPa | 0 mm | - | 627 W/m² | - |
| 1777925530 | 26.67° C | 55% | 1005.2 hPa | 0 mm | - | 664 W/m² | - |
| 1777925227 | 26.11° C | 56% | 1005.2 hPa | 0 mm | - | 755 W/m² | - |
| 1777924923 | 26.67° C | 55% | 1005.5 hPa | 0 mm | - | 751 W/m² | - |
| 1777924619 | 26.11° C | 57% | 1005.5 hPa | 0 mm | - | 730 W/m² | - |
| 1777924315 | 26.67° C | 55% | 1005.7 hPa | 0 mm | - | 767 W/m² | - |
| 1777924013 | 26.67° C | 55% | 1005.6 hPa | 0 mm | - | 700 W/m² | - |
| 1777923708 | 26.67° C | 55% | 1005.8 hPa | 0 mm | - | 703 W/m² | - |
| 1777923405 | 26.11° C | 55% | 1005.8 hPa | 0 mm | - | 751 W/m² | - |
| 1777923103 | 25.56° C | 56% | 1005.8 hPa | 0 mm | - | 771 W/m² | - |
| 1777922801 | 26.11° C | 55% | 1005.9 hPa | 0 mm | - | 803 W/m² | - |
| 1777922499 | 26.11° C | 55% | 1006.3 hPa | 0 mm | - | 800 W/m² | - |
* Rain latest hour (hover to see other rain measurements)
** Current wind speed in m/s (hover to see current wind gust speed)